Location: ??????????
(42.1626°N, 44.1160°E)
Time: 23:33:41
(UTC+00:00)

FENGYUN 1C DEB - Pass Details

Date: 26 September 2021
Orbit: 836 x 1129 km, 99.1° (Epoch: 24 October)

Event Time Altitude Azimuth Distance (km) Brightness Sun altitude
Exits shadow 22:49:51 15° 5° (N) 2,158 ? -41.9°
Drops below altitude 10° 22:50:42 10° 0° (N) 2,466 ? -41.8°
Sets 22:53:09 0° 354° (N) 3,397 ? -41.5°
